This is the latest recevied weather packets stored in our database for station/object WA6OOO. If no packets are shown the sender has not sent any weather packets the latest 10 day(s).
| Time | Temp. | Humidity | Pressure | Rain* | Wind** | Luminosity | Snow |
|---|---|---|---|---|---|---|---|
| 1777298941 | 12.78° C | 76% | 1018.4 hPa | 0 mm | - | 72 W/m² | - |
| 1777298638 | 12.78° C | 76% | 1018.3 hPa | 0 mm | - | 63 W/m² | - |
| 1777298334 | 11.67° C | 80% | 1018.4 hPa | 0 mm | - | 54 W/m² | - |
| 1777298030 | 11.11° C | 83% | 1018.4 hPa | 0 mm | - | 44 W/m² | - |
| 1777297725 | 11.11° C | 82% | 1018.4 hPa | 0 mm | - | 32 W/m² | - |
| 1777297424 | 11.11° C | 83% | 1018.2 hPa | 0 mm | - | 25 W/m² | - |
| 1777297120 | 11.11° C | 83% | 1018.3 hPa | 0 mm | - | 21 W/m² | - |
| 1777296818 | 11.11° C | 83% | 1018.1 hPa | 0 mm | - | 17 W/m² | - |
| 1777296513 | 11.11° C | 83% | 1018.3 hPa | 0 mm | - | 12 W/m² | - |
| 1777296209 | 11.11° C | 83% | 1018.3 hPa | 0 mm | - | 9 W/m² | - |
| 1777295905 | 11.11° C | 82% | 1018.3 hPa | 0 mm | - | 6 W/m² | - |
| 1777295603 | 11.11° C | 81% | 1018.2 hPa | 0 mm | - | 3 W/m² | - |
| 1777295300 | 11.11° C | 80% | 1018.3 hPa | 0 mm | - | 2 W/m² | - |
| 1777294998 | 11.11° C | 81% | 1018.1 hPa | 0 mm | - | 1 W/m² | - |
| 1777294694 | 11.11° C | 80% | 1018.1 hPa | 0 mm | - | 0 W/m² | - |
| 1777294389 | 11.11° C | 80% | 1018 hPa | 0 mm | - | 0 W/m² | - |
| 1777294087 | 11.67° C | 79% | 1017.9 hPa | 0 mm | - | 0 W/m² | - |
| 1777293783 | 11.67° C | 78% | 1017.9 hPa | 0 mm | - | 0 W/m² | - |
| 1777293478 | 11.67° C | 79% | 1018 hPa | 0 mm | - | 0 W/m² | - |
| 1777293174 | 11.11° C | 79% | 1017.9 hPa | 0 mm | - | 0 W/m² | - |
| 1777292873 | 11.67° C | 78% | 1018 hPa | 0 mm | - | 0 W/m² | - |
| 1777292569 | 11.67° C | 78% | 1017.8 hPa | 0 mm | - | 0 W/m² | - |
| 1777292265 | 11.11° C | 79% | 1017.8 hPa | 0 mm | - | 0 W/m² | - |
| 1777291961 | 11.11° C | 78% | 1017.9 hPa | 0 mm | - | 0 W/m² | - |
| 1777291658 | 11.11° C | 79% | 1017.9 hPa | 0 mm | - | 0 W/m² | - |
* Rain latest hour (hover to see other rain measurements)
** Current wind speed in m/s (hover to see current wind gust speed)